Weather History for KOFF - April, 2013

Change the Weather History Date:

Wednesday, April 10, 2013

  Actual Average Record
Temperature  
Mean Temperature 36 °F -  
Max Temperature 39 °F 58 °F 80 °F (2006)
Min Temperature 33 °F 38 °F 30 °F (1997)
Degree Days  
Heating Degree Days 29    
Moisture  
Dew Point 37 °F    
Average Humidity 99    
Maximum Humidity 100    
Minimum Humidity 93    
Precipitation  
Precipitation 0.66 in - - ()
Sea Level Pressure  
Sea Level Pressure 29.89 in    
Wind  
Wind Speed 10 mph (NW)    
Max Wind Speed 18 mph    
Max Gust Speed 25 mph    
Visibility 8 miles    
Events Rain , Snow , Thunderstorm    
Averages and records for this station are not official NWS values.
T = Trace of Precipitation, MM = Missing Value Source: NWS Daily Summary

Daily Weather History Graph

Daily Weather History Graph

Search for Another Location

Airport or City:

Trip Planner

Search our weather history database for the weather conditions in past years. The results will help you decide how hot, cold, wet, or windy it might be!

Date:

Astronomy

Apr. 10, 2013 Rise Set
Actual Time 6:51 AM CDT 7:58 PM CDT
Civil Twilight 6:23 AM CDT 8:26 PM CDT
Nautical Twilight 5:49 AM CDT 9:00 PM CDT
Astronomical Twilight 5:14 AM CDT 9:36 PM CDT
Moon 6:48 AM CDT (4/10) 8:36 PM CDT (4/10)
Length of Visible Light 14h 03m
Length of Day
13h 06m
New Moon, 0% of the Moon is Illuminated
Apr 10
New Moon
Apr 18
First Quarter
Apr 25
Full
May 2
Last Quarter
May 9
New

Hourly Weather History & Observations

Time (CDT) Temp. Windchill Dew Point Humidity Pressure Visibility Wind Dir Wind Speed Gust Speed Precip Events Conditions
12:00 AM 39.2 °F 32.0 °F 39.2 °F 100% 29.96 in 5.0 mi NW 11.5 mph 18.4 mph N/A Rain , Thunderstorm Heavy Thunderstorms and Rain
12:19 AM 39.2 °F 33.0 °F 39.2 °F 100% 29.90 in 5.0 mi NW 9.2 mph - N/A Rain , Thunderstorm Heavy Thunderstorms and Rain
12:45 AM 39.2 °F 33.0 °F 39.2 °F 100% 29.97 in 5.0 mi WNW 9.2 mph - N/A Rain , Thunderstorm Heavy Thunderstorms and Rain
12:49 AM 39.2 °F 32.5 °F 39.2 °F 100% 29.96 in 4.0 mi NW 10.4 mph - N/A Rain , Thunderstorm Heavy Thunderstorms and Rain
12:52 AM 39.2 °F 32.5 °F 39.2 °F 100% 29.95 in 4.0 mi NNW 10.4 mph - N/A Rain , Thunderstorm Heavy Thunderstorms and Rain
12:53 AM 39.2 °F 32.5 °F 39.2 °F 100% 29.94 in 3.0 mi NNW 10.4 mph - N/A Rain , Thunderstorm Heavy Thunderstorms and Rain
12:55 AM 39.0 °F 33.4 °F 38.8 °F 99% 29.94 in 3.0 mi North 8.1 mph - 0.27 in Rain , Thunderstorm Heavy Thunderstorms and Rain
12:57 AM 39.2 °F 34.2 °F 39.2 °F 100% 29.94 in 3.0 mi North 6.9 mph - N/A Rain , Thunderstorm Heavy Thunderstorms and Rain
1:04 AM 39.2 °F - 39.2 °F 100% 29.94 in 4.0 mi Calm Calm - N/A Rain , Thunderstorm Heavy Rain
1:05 AM 39.2 °F - 39.2 °F 100% 29.94 in 4.0 mi Calm Calm - N/A Rain , Thunderstorm Heavy Rain
1:24 AM 37.4 °F 28.2 °F 37.4 °F 100% 29.89 in 4.0 mi NE 16.1 mph 21.9 mph N/A Rain , Thunderstorm Heavy Rain
1:39 AM 37.4 °F 29.8 °F 37.4 °F 100% 29.89 in 7.0 mi NNE 11.5 mph 25.3 mph N/A Rain , Thunderstorm Light Thunderstorms and Rain
1:46 AM 37.4 °F 28.2 °F 37.4 °F 100% 29.94 in 8.0 mi West 16.1 mph 20.7 mph N/A Rain , Thunderstorm Heavy Thunderstorms and Rain
1:54 AM 37.4 °F 29.8 °F 37.4 °F 100% 29.91 in 9.0 mi NW 11.5 mph 20.7 mph N/A Rain Rain
1:55 AM 37.4 °F 29.3 °F 37.2 °F 99% 29.90 in 10.0 mi NW 12.7 mph - 0.21 in Rain Rain
1:57 AM 37.4 °F 29.8 °F 37.4 °F 100% 29.88 in 10.0 mi NNW 11.5 mph - N/A Rain Light Rain
1:59 AM 37.4 °F 30.3 °F 37.4 °F 100% 29.88 in 10.0 mi NNW 10.4 mph - N/A Rain Light Rain
2:02 AM 37.4 °F 28.9 °F 37.4 °F 100% 29.89 in 10.0 mi NW 13.8 mph - N/A Rain Light Rain
2:05 AM 37.4 °F 29.3 °F 37.4 °F 100% 29.89 in 10.0 mi NW 12.7 mph - N/A Rain Light Rain
2:09 AM 37.4 °F 28.5 °F 37.4 °F 100% 29.88 in 10.0 mi WNW 15.0 mph - N/A Rain Light Rain
2:13 AM 37.4 °F 29.8 °F 37.4 °F 100% 29.85 in 10.0 mi NW 11.5 mph - N/A Rain Rain
2:46 AM 37.4 °F 27.8 °F 37.4 °F 100% 29.94 in 10.0 mi West 17.3 mph - N/A Rain Light Rain
2:49 AM 37.4 °F 29.3 °F 37.4 °F 100% 29.93 in 10.0 mi West 12.7 mph - N/A   Overcast
2:54 AM 37.4 °F 30.8 °F 37.4 °F 100% 29.92 in 10.0 mi WNW 9.2 mph - N/A   Overcast
2:55 AM 37.2 °F 29.6 °F 37.0 °F 99% 29.91 in 10.0 mi WNW 11.5 mph - 0.02 in   Overcast
3:03 AM 37.4 °F 27.5 °F 37.4 °F 100% 29.91 in 10.0 mi WNW 18.4 mph - N/A   Overcast
3:19 AM 37.4 °F 28.2 °F 35.6 °F 93% 29.91 in 10.0 mi NW 16.1 mph - N/A   Overcast
3:55 AM 36.7 °F 28.4 °F 36.3 °F 99% 29.88 in 8.0 mi NNW 12.7 mph - N/A   Overcast
4:55 AM 37.4 °F 29.3 °F 37.2 °F 99% 29.85 in 10.0 mi North 12.7 mph 18.4 mph N/A   Overcast
5:39 AM 37.4 °F 31.4 °F 37.4 °F 100% 29.90 in 10.0 mi North 8.1 mph - N/A   Overcast
5:55 AM 37.9 °F 30.9 °F 37.6 °F 99% 29.90 in 6.0 mi NNW 10.4 mph - 0.00 in   Overcast
6:00 AM 37.4 °F 30.8 °F 37.4 °F 100% 29.90 in 5.0 mi NNW 9.2 mph - N/A   Light Drizzle
6:15 AM 37.4 °F 30.8 °F 37.4 °F 100% 29.91 in 5.0 mi NW 9.2 mph - N/A Rain Light Rain
6:36 AM 37.4 °F 30.3 °F 37.4 °F 100% 29.89 in 8.0 mi North 10.4 mph - N/A   Overcast
6:55 AM 37.2 °F 31.2 °F 37.0 °F 99% 29.91 in 9.0 mi North 8.1 mph - 0.00 in   Overcast
7:11 AM 37.4 °F 31.4 °F 37.4 °F 100% 29.91 in 10.0 mi North 8.1 mph - N/A   Overcast
7:15 AM 37.4 °F 31.4 °F 37.4 °F 100% 29.91 in 10.0 mi North 8.1 mph - N/A   Overcast
7:26 AM 37.4 °F 30.8 °F 37.4 °F 100% 29.91 in 10.0 mi North 9.2 mph - N/A Rain Light Rain
7:35 AM 37.4 °F 31.4 °F 37.4 °F 100% 29.91 in 10.0 mi North 8.1 mph - N/A Rain Light Rain
7:42 AM 37.4 °F 31.4 °F 37.4 °F 100% 29.90 in 10.0 mi North 8.1 mph - N/A   Overcast
7:54 AM 37.4 °F 31.4 °F 37.4 °F 100% 29.91 in 10.0 mi NNW 8.1 mph - N/A Rain Light Rain
7:55 AM 37.4 °F 31.4 °F 37.2 °F 99% 29.91 in 10.0 mi NNW 8.1 mph - 0.00 in Rain Light Rain
8:55 AM 37.9 °F 35.5 °F 37.6 °F 99% 29.93 in 10.0 mi North 3.5 mph - 0.03 in Rain Light Rain
9:06 AM 37.4 °F 32.8 °F 37.4 °F 100% 29.94 in 10.0 mi NNW 5.8 mph - N/A Rain Light Rain
9:36 AM 39.2 °F 33.0 °F 37.4 °F 93% 29.89 in 10.0 mi North 9.2 mph - N/A Rain Light Rain
9:55 AM 38.7 °F 31.8 °F 38.5 °F 99% 29.92 in 10.0 mi NW 10.4 mph - 0.01 in Rain Light Rain
9:57 AM 39.2 °F 33.0 °F 39.2 °F 100% 29.91 in 10.0 mi NW 9.2 mph - N/A Rain Light Rain
9:58 AM 39.2 °F 33.6 °F 39.2 °F 100% 29.91 in 10.0 mi NNW 8.1 mph - N/A   Overcast
10:46 AM 39.2 °F 33.6 °F 39.2 °F 100% 29.94 in 5.0 mi NW 8.1 mph - N/A   Overcast
10:55 AM 38.8 °F 34.6 °F 38.5 °F 99% 29.92 in 4.0 mi NNW 5.8 mph - 0.00 in   Overcast
11:09 AM 39.2 °F 33.0 °F 39.2 °F 100% 29.92 in 3.0 mi NW 9.2 mph - N/A   Overcast
11:12 AM 39.2 °F 33.0 °F 39.2 °F 100% 29.95 in 3.0 mi NW 9.2 mph - N/A   Overcast
11:13 AM 39.2 °F 33.0 °F 39.2 °F 100% 29.95 in 3.0 mi NW 9.2 mph - N/A Rain Light Rain
11:16 AM 39.2 °F 33.6 °F 39.2 °F 100% 29.96 in 2.5 mi NW 8.1 mph - N/A Rain Light Rain
11:21 AM 39.2 °F 33.6 °F 39.2 °F 100% 29.96 in 2.5 mi NW 8.1 mph - N/A Rain Light Rain
11:28 AM 39.2 °F 33.0 °F 39.2 °F 100% 29.96 in 2.5 mi NW 9.2 mph - N/A Rain Light Rain
11:34 AM 39.2 °F 32.5 °F 39.2 °F 100% 29.95 in 2.0 mi NNW 10.4 mph - N/A Rain Light Rain
11:55 AM 38.5 °F 30.7 °F 38.3 °F 99% 29.97 in 2.5 mi NW 12.7 mph - 0.00 in Rain Light Rain
11:57 AM 39.2 °F 31.6 °F 39.2 °F 100% 29.97 in 3.0 mi WNW 12.7 mph - N/A Rain Light Rain
12:06 PM 39.2 °F 32.0 °F 37.4 °F 93% 29.98 in 4.0 mi NW 11.5 mph - N/A Rain Light Rain
12:24 PM 39.2 °F 32.5 °F 37.4 °F 93% 29.98 in 7.0 mi NNW 10.4 mph - N/A   Overcast
12:30 PM 39.2 °F 32.5 °F 37.4 °F 93% 29.98 in 9.0 mi NNW 10.4 mph - N/A   Overcast
12:40 PM 39.2 °F 33.0 °F 37.4 °F 93% 29.97 in 10.0 mi North 9.2 mph - N/A   Overcast
12:50 PM 39.2 °F 32.5 °F 39.2 °F 100% 29.96 in 8.0 mi NNW 10.4 mph - N/A   Overcast
12:51 PM 39.2 °F 33.0 °F 39.2 °F 100% 29.95 in 7.0 mi NNW 9.2 mph - N/A Rain Light Rain
12:52 PM 39.2 °F 33.0 °F 39.2 °F 100% 29.95 in 7.0 mi NNW 9.2 mph - N/A Rain Light Rain
12:55 PM 38.7 °F 31.4 °F 38.5 °F 99% 29.95 in 6.0 mi NNW 11.5 mph - 0.00 in Rain Light Rain
1:09 PM 39.2 °F 32.5 °F 37.4 °F 93% 29.95 in 4.0 mi NNW 10.4 mph - N/A Rain Light Rain
1:11 PM 39.2 °F 31.6 °F 37.4 °F 93% 29.95 in 4.0 mi NNW 12.7 mph - N/A Rain Light Rain
1:30 PM 37.4 °F 28.5 °F 37.4 °F 100% 29.93 in 10.0 mi North 15.0 mph 19.6 mph N/A   Overcast
1:34 PM 37.4 °F 28.9 °F 37.4 °F 100% 29.93 in 10.0 mi NNW 13.8 mph 19.6 mph N/A   Overcast
1:37 PM 37.4 °F 28.2 °F 37.4 °F 100% 29.93 in 10.0 mi North 16.1 mph 19.6 mph N/A   Overcast
1:38 PM 37.4 °F 28.9 °F 37.4 °F 100% 29.93 in 10.0 mi North 13.8 mph 19.6 mph N/A   Overcast
1:40 PM 37.4 °F 29.3 °F 37.4 °F 100% 29.93 in 10.0 mi North 12.7 mph - N/A   Overcast
1:43 PM 37.4 °F 29.8 °F 37.4 °F 100% 29.93 in 10.0 mi North 11.5 mph - N/A   Overcast
1:55 PM 38.1 °F 30.7 °F 37.9 °F 99% 29.93 in 10.0 mi NNW 11.5 mph 18.4 mph 0.00 in   Overcast
2:51 PM 37.4 °F 28.5 °F 37.4 °F 100% 29.94 in 10.0 mi North 15.0 mph 19.6 mph N/A Rain Light Rain
2:55 PM 37.8 °F 29.8 °F 37.2 °F 98% 29.93 in 10.0 mi North 12.7 mph 19.6 mph 0.00 in Rain Light Rain
3:25 PM 37.4 °F 29.8 °F 37.4 °F 100% 29.91 in 9.0 mi North 11.5 mph - N/A   Overcast
3:29 PM 37.4 °F 31.4 °F 37.4 °F 100% 29.92 in 10.0 mi NNW 8.1 mph - N/A   Overcast
3:33 PM 37.4 °F 31.4 °F 37.4 °F 100% 29.93 in 9.0 mi NNW 8.1 mph - N/A Rain Light Rain
3:35 PM 37.4 °F 30.3 °F 37.4 °F 100% 29.92 in 8.0 mi NNW 10.4 mph - N/A Rain Light Rain
3:49 PM 37.4 °F 30.3 °F 37.4 °F 100% 29.92 in 5.0 mi NW 10.4 mph - N/A Rain Light Rain
3:50 PM 37.4 °F 30.3 °F 37.4 °F 100% 29.92 in 5.0 mi NNW 10.4 mph - N/A Rain Light Rain
3:55 PM 37.6 °F 29.6 °F 37.4 °F 99% 29.92 in 5.0 mi NNW 12.7 mph - 0.01 in Rain Light Rain
3:56 PM 37.4 °F 29.8 °F 37.4 °F 100% 29.92 in 5.0 mi NNW 11.5 mph - N/A Rain Light Rain
4:05 PM 37.4 °F 30.8 °F 37.4 °F 100% 29.91 in 5.0 mi NNW 9.2 mph - N/A   Overcast
4:06 PM 37.4 °F 31.4 °F 37.4 °F 100% 29.91 in 5.0 mi NNW 8.1 mph - N/A   Overcast
4:08 PM 37.4 °F 30.8 °F 37.4 °F 100% 29.91 in 5.0 mi NNW 9.2 mph - N/A   Overcast
4:31 PM 37.4 °F 32.1 °F 37.4 °F 100% 29.90 in 7.0 mi NNW 6.9 mph - N/A Rain Light Rain
4:54 PM 37.4 °F 29.8 °F 37.4 °F 100% 29.89 in 9.0 mi NNW 11.5 mph - N/A Rain Light Rain
4:55 PM 37.4 °F 29.8 °F 37.2 °F 99% 29.89 in 9.0 mi NNW 11.5 mph - 0.01 in Rain Light Rain
5:00 PM 37.4 °F 30.3 °F 37.4 °F 100% 29.87 in 9.0 mi North 10.4 mph - N/A Rain Light Rain
5:05 PM 37.4 °F 28.9 °F 37.4 °F 100% 29.85 in 10.0 mi North 13.8 mph - N/A Rain Light Rain
5:10 PM 37.4 °F 28.9 °F 37.4 °F 100% 29.86 in 10.0 mi NNW 13.8 mph - N/A   Overcast
5:12 PM 37.4 °F 29.3 °F 37.4 °F 100% 29.86 in 10.0 mi NNW 12.7 mph - N/A Rain Light Rain
5:14 PM 37.4 °F 29.8 °F 37.4 °F 100% 29.85 in 9.0 mi North 11.5 mph - N/A Rain Light Rain
5:16 PM 37.4 °F 30.8 °F 37.4 °F 100% 29.85 in 9.0 mi NNW 9.2 mph - N/A Rain Light Rain
5:19 PM 37.4 °F 30.3 °F 37.4 °F 100% 29.85 in 9.0 mi NNW 10.4 mph - N/A Rain Light Rain
5:23 PM 37.4 °F 30.3 °F 37.4 °F 100% 29.84 in 9.0 mi North 10.4 mph - N/A   Overcast
5:32 PM 37.4 °F 29.8 °F 37.4 °F 100% 29.85 in 10.0 mi NNW 11.5 mph - N/A   Overcast
5:55 PM 36.9 °F 28.2 °F 36.7 °F 99% 29.84 in 10.0 mi North 13.8 mph - 0.00 in   Overcast
6:12 PM 37.4 °F 29.3 °F 37.4 °F 100% 29.83 in 10.0 mi NNW 12.7 mph 17.3 mph N/A   Overcast
6:55 PM 36.9 °F 30.7 °F 36.7 °F 99% 29.83 in 10.0 mi NNW 8.1 mph - 0.00 in Rain Light Rain
7:19 PM 37.4 °F 30.8 °F 37.4 °F 100% 29.83 in 7.0 mi NNW 9.2 mph - N/A   Overcast
7:21 PM 37.4 °F 30.3 °F 37.4 °F 100% 29.83 in 6.0 mi NNW 10.4 mph - N/A Rain Rain
7:22 PM 37.4 °F 30.8 °F 37.4 °F 100% 29.83 in 6.0 mi NNW 9.2 mph - N/A Rain Rain
7:29 PM 37.4 °F 30.8 °F 35.6 °F 93% 29.80 in 6.0 mi NNW 9.2 mph - N/A   Ice Pellets
7:31 PM 37.4 °F 30.8 °F 35.6 °F 93% 29.83 in 6.0 mi NNW 9.2 mph - N/A Rain Rain
7:32 PM 37.4 °F 30.3 °F 35.6 °F 93% 29.83 in 6.0 mi NNW 10.4 mph - N/A Rain Rain
7:33 PM 37.4 °F 31.4 °F 35.6 °F 93% 29.80 in 6.0 mi NNW 8.1 mph - N/A   Ice Pellets
7:34 PM 37.4 °F 30.8 °F 35.6 °F 93% 29.83 in 6.0 mi NNW 9.2 mph - N/A Rain Light Rain
7:38 PM 37.4 °F 32.1 °F 35.6 °F 93% 29.83 in 7.0 mi NNW 6.9 mph - N/A Rain Light Rain
7:55 PM 36.3 °F 30.1 °F 36.1 °F 99% 29.84 in 7.0 mi NW 8.1 mph - 0.03 in Rain Light Rain
8:06 PM 35.6 °F 29.9 °F 35.6 °F 100% 29.84 in 7.0 mi WNW 6.9 mph - N/A Rain Light Rain
8:44 PM 35.6 °F 31.7 °F 35.6 °F 100% 29.84 in 10.0 mi NW 4.6 mph - N/A Rain Light Rain
8:48 PM 35.6 °F 31.7 °F 35.6 °F 100% 29.84 in 10.0 mi WNW 4.6 mph - N/A Rain Light Rain
8:51 PM 35.6 °F 32.8 °F 35.6 °F 100% 29.84 in 10.0 mi WNW 3.5 mph - N/A Rain Light Rain
8:53 PM 35.6 °F 31.7 °F 35.6 °F 100% 29.84 in 10.0 mi West 4.6 mph - N/A Rain Light Rain
8:55 PM 35.8 °F 30.9 °F 35.6 °F 99% 29.85 in 10.0 mi West 5.8 mph - 0.01 in Rain Light Rain
8:59 PM 35.6 °F 30.7 °F 35.6 °F 100% 29.85 in 10.0 mi West 5.8 mph - N/A Rain Light Rain
9:13 PM 35.6 °F 29.2 °F 35.6 °F 100% 29.85 in 10.0 mi WNW 8.1 mph - N/A Rain Light Rain
9:22 PM 35.6 °F 28.0 °F 35.6 °F 100% 29.85 in 7.0 mi WNW 10.4 mph - N/A   Overcast
9:31 PM 33.8 °F 26.4 °F 33.8 °F 100% 29.84 in 9.0 mi WNW 9.2 mph - N/A Snow Light Snow
9:43 PM 33.8 °F 25.8 °F 33.8 °F 100% 29.84 in 8.0 mi WNW 10.4 mph - N/A Snow Light Snow
9:55 PM 33.4 °F 24.8 °F 33.3 °F 99% 29.83 in 6.0 mi WNW 11.5 mph - 0.04 in Snow Light Snow
10:07 PM 33.8 °F 26.4 °F 32.0 °F 93% 29.83 in 7.0 mi WNW 9.2 mph - N/A Snow Light Snow
10:14 PM 33.8 °F 27.0 °F 32.0 °F 93% 29.83 in 8.0 mi NW 8.1 mph - N/A Snow Light Snow
10:16 PM 33.8 °F 26.4 °F 32.0 °F 93% 29.83 in 8.0 mi WNW 9.2 mph - N/A Snow Light Snow
10:19 PM 33.8 °F 25.8 °F 33.8 °F 100% 29.83 in 8.0 mi WNW 10.4 mph - N/A Rain Light Rain
10:21 PM 33.8 °F 25.8 °F 33.8 °F 100% 29.83 in 8.0 mi WNW 10.4 mph - N/A Rain Light Rain
10:27 PM 33.8 °F 24.3 °F 33.8 °F 100% 29.83 in 10.0 mi WNW 13.8 mph - N/A Rain Light Rain
10:34 PM 33.8 °F 24.8 °F 33.8 °F 100% 29.83 in 10.0 mi WNW 12.7 mph - N/A Rain Light Rain
10:36 PM 33.8 °F 24.3 °F 33.8 °F 100% 29.83 in 10.0 mi WNW 13.8 mph - N/A Rain Light Rain
10:40 PM 33.8 °F 24.8 °F 33.8 °F 100% 29.83 in 10.0 mi WNW 12.7 mph - N/A Rain Light Rain
10:42 PM 33.8 °F 23.9 °F 33.8 °F 100% 29.83 in 10.0 mi WNW 15.0 mph - N/A Rain Light Rain
10:44 PM 33.8 °F 24.3 °F 33.8 °F 100% 29.83 in 9.0 mi WNW 13.8 mph - N/A Rain Light Rain
10:55 PM 33.8 °F 25.3 °F 33.6 °F 99% 29.83 in 6.0 mi WNW 11.5 mph - 0.02 in Rain Light Rain
11:00 PM 33.8 °F 25.3 °F 33.8 °F 100% 29.83 in 8.0 mi WNW 11.5 mph - N/A Rain Light Rain
11:05 PM 33.8 °F 24.8 °F 33.8 °F 100% 29.83 in 8.0 mi WNW 12.7 mph - N/A Rain Light Rain
11:35 PM 33.8 °F 24.8 °F 33.8 °F 100% 29.82 in 8.0 mi WNW 12.7 mph - N/A Rain Light Rain
11:42 PM 33.8 °F 24.3 °F 33.8 °F 100% 29.82 in 8.0 mi WNW 13.8 mph - N/A   Light Drizzle
11:48 PM 33.8 °F 24.8 °F 33.8 °F 100% 29.82 in 8.0 mi WNW 12.7 mph - N/A   Light Drizzle
11:51 PM 33.8 °F 24.8 °F 33.8 °F 100% 29.82 in 8.0 mi WNW 12.7 mph - N/A   Light Drizzle
11:55 PM 33.8 °F 24.8 °F 33.6 °F 99% 29.81 in 8.0 mi WNW 12.7 mph - 0.00 in Rain Light Rain